DUMMY MASS 1

导读

DUMMY MASS 1是中国于1997年9月1日08:00发射的配重卫星(模拟载荷),作为长征系列运载火箭的配重试验载荷,主要用于验证运载火箭的发射流程、结构设计与轨道精度。该卫星无实际工作载荷,仅承担质量模拟任务,为中国运载火箭后续发射任务积累了关键工程数据,是中国航天发射技术验证体系中的特殊节点。

基本信息
目录编号:
24925
目录名称:
DUMMY MASS 1
国际标识:
1997-048A
轨道中心:
EARTH
卫星名称:
DUMMY MASS 1
卫星全名:
--
卫星状态:
在轨 (已飞行10602 天)
发射日期:
1997-09-01 UTC
国别 :
中国 (CN)
星等 :
--
轨道信息
数据来源 国际轨道数据 AOE轨道数据
星历时间 2026-09-10T22:50:22+0800
11小时前
查看轨道信息
2026-09-10T23:00:00+0800
11小时前
查看轨道信息
半长轴 6984.236km 6984.236km
偏心率 0.0006515 0.0006551
轨道倾角 86.331° 86.332°
近地点辐角 10.054° 9.579°
升交点赤经 286.885° 286.884°
平近点角 350.081° 26.374°
近地点 601.548km 601.523km
远地点 610.65km 610.675km
周期 96.814分钟 96.814分钟
每日圈数 14.873885 14.873885
详细信息
使用方式:
暂无
2D轨道图
3D轨道图
轨道高度分析图
轨道倾角分析图
轨道综合分析图
查看轨道综合分析图
与全量物体交会距离演化趋势
与全量物体交会风险概率演化趋势